| time (UTC) | temp F | wind direction | speed knots | gust knots | rain 1hr in | rain 24hr in | rain mn in | humidity % | barometer mb |
| 20260508043838 | 47 | 203 | 0.9 | 2.6 | 0.00 | 0.02 | 0.02 | 79 | 1016.1 |
| 20260508043347 | 47 | 202 | 0.9 | 3.5 | 0.00 | 0.02 | 0.02 | 81 | 1016.1 |
| 20260508042836 | 47 | 202 | 1.7 | 3.5 | 0.00 | 0.02 | 0.02 | 80 | 1016.1 |
| 20260508042326 | 47 | 200 | 1.7 | 2.6 | 0.00 | 0.02 | 0.02 | 80 | 1016.1 |
| 20260508041839 | 47 | 198 | 0.0 | 1.7 | 0.00 | 0.02 | 0.02 | 80 | 1016.0 |
| 20260508041328 | 47 | 198 | 0.9 | 2.6 | 0.00 | 0.02 | 0.02 | 79 | 1016.1 |
| 20260508040837 | 47 | 199 | 0.9 | 3.5 | 0.00 | 0.02 | 0.02 | 79 | 1016.0 |
| 20260508040327 | 47 | 201 | 1.7 | 3.5 | 0.00 | 0.02 | 0.02 | 79 | 1016.0 |
| 20260508035835 | 47 | 189 | 0.0 | 1.7 | 0.00 | 0.02 | 0.02 | 78 | 1016.0 |
| 20260508035352 | 47 | 189 | 0.0 | 1.7 | 0.00 | 0.02 | 0.02 | 78 | 1015.8 |
| 20260508034840 | 47 | 190 | 0.9 | 1.7 | 0.00 | 0.02 | 0.02 | 77 | 1015.9 |
| 20260508034330 | 48 | 189 | 0.9 | 1.7 | 0.00 | 0.02 | 0.02 | 76 | 1016.0 |
| 20260508033842 | 49 | 190 | 0.0 | 0.9 | 0.00 | 0.02 | 0.02 | 76 | 1015.8 |
| 20260508033330 | 49 | 190 | 0.0 | 1.7 | 0.00 | 0.02 | 0.02 | 76 | 1015.7 |
| 20260508032836 | 49 | 190 | 0.0 | 2.6 | 0.00 | 0.02 | 0.02 | 74 | 1015.6 |
| 20260508032347 | 50 | 189 | 0.0 | 4.3 | 0.00 | 0.02 | 0.02 | 74 | 1015.6 |
| 20260508031836 | 51 | 190 | 1.7 | 4.3 | 0.00 | 0.02 | 0.02 | 74 | 1015.5 |
| 20260508031345 | 51 | 223 | 1.7 | 2.6 | 0.00 | 0.02 | 0.02 | 73 | 1015.5 |
| 20260508030901 | 51 | 232 | 0.9 | 1.7 | 0.00 | 0.02 | 0.02 | 72 | 1015.4 |
| 20260508030336 | 51 | 232 | 0.9 | 1.7 | 0.00 | 0.02 | 0.02 | 72 | 1015.5 |
| 20260508025824 | 52 | 232 | 0.0 | 0.0 | 0.00 | 0.02 | 0.02 | 71 | 1015.3 |
| 20260508025401 | 52 | 232 | 0.0 | 0.9 | 0.00 | 0.02 | 0.02 | 70 | 1015.5 |
| 20260508024902 | 53 | 232 | 0.0 | 0.9 | 0.00 | 0.02 | 0.02 | 69 | 1015.3 |
| 20260508024329 | 54 | 232 | 0.0 | 1.7 | 0.00 | 0.02 | 0.02 | 68 | 1015.2 |
| 20260508023837 | 54 | 232 | 0.0 | 3.5 | 0.00 | 0.02 | 0.02 | 65 | 1015.2 |
| 20260508023332 | 54 | 232 | 1.7 | 3.5 | 0.00 | 0.02 | 0.02 | 65 | 1015.0 |
| 20260508022840 | 54 | 215 | 1.7 | 3.5 | 0.00 | 0.02 | 0.02 | 65 | 1015.2 |
| 20260508022330 | 54 | 212 | 1.7 | 4.3 | 0.00 | 0.02 | 0.02 | 65 | 1015.0 |
| 20260508021839 | 54 | 238 | 2.6 | 5.2 | 0.00 | 0.02 | 0.02 | 65 | 1015.1 |
| 20260508021336 | 55 | 214 | 3.5 | 5.2 | 0.00 | 0.02 | 0.02 | 65 | 1015.1 |
| 20260508020842 | 55 | 228 | 2.6 | 4.3 | 0.00 | 0.02 | 0.02 | 65 | 1015.1 |
| 20260508020356 | 56 | 200 | 2.6 | 4.3 | 0.00 | 0.02 | 0.02 | 63 | 1015.0 |
| 20260508015837 | 56 | 228 | 0.9 | 2.6 | 0.00 | 0.02 | 0.02 | 63 | 1015.0 |
| 20260508015344 | 56 | 228 | 0.9 | 2.6 | 0.00 | 0.02 | 0.02 | 63 | 1015.0 |
| 20260508014833 | 56 | 229 | 1.7 | 2.6 | 0.00 | 0.02 | 0.02 | 64 | 1015.0 |
| 20260508014351 | 56 | 226 | 1.7 | 2.6 | 0.00 | 0.02 | 0.02 | 63 | 1014.9 |
| 20260508013839 | 57 | 248 | 1.7 | 2.6 | 0.00 | 0.02 | 0.02 | 63 | 1014.9 |
| 20260508013331 | 57 | 248 | 1.7 | 6.1 | 0.00 | 0.02 | 0.02 | 64 | 1014.9 |
| 20260508012845 | 57 | 246 | 1.7 | 6.1 | 0.00 | 0.02 | 0.02 | 64 | 1014.9 |
| 20260508012331 | 57 | 259 | 2.6 | 4.3 | 0.00 | 0.02 | 0.02 | 65 | 1014.8 |
| 20260508011840 | 57 | 234 | 2.6 | 4.3 | 0.00 | 0.02 | 0.02 | 65 | 1014.9 |
| 20260508011335 | 57 | 189 | 0.9 | 3.5 | 0.00 | 0.02 | 0.02 | 68 | 1015.0 |
| 20260508010842 | 57 | 188 | 1.7 | 4.3 | 0.00 | 0.02 | 0.02 | 70 | 1015.0 |
| 20260508010330 | 57 | 149 | 1.7 | 4.3 | 0.00 | 0.02 | 0.02 | 71 | 1015.0 |
| 20260508005837 | 57 | 88 | 0.0 | 3.5 | 0.00 | 0.02 | 0.02 | 72 | 1014.9 |
| 20260508005355 | 56 | 101 | 1.7 | 4.3 | 0.00 | 0.02 | 0.02 | 72 | 1015.1 |
| 20260508004838 | 55 | 132 | 1.7 | 4.3 | 0.00 | 0.02 | 0.02 | 75 | 1015.1 |
| 20260508004346 | 55 | 289 | 2.6 | 3.5 | 0.00 | 0.02 | 0.02 | 74 | 1015.6 |
| 20260508003835 | 55 | 290 | 1.7 | 2.6 | 0.00 | 0.02 | 0.02 | 74 | 1015.5 |
| 20260508003337 | 55 | 229 | 0.0 | 1.7 | 0.00 | 0.02 | 0.02 | 75 | 1015.3 |
| 20260508002849 | 55 | 229 | 0.9 | 1.7 | 0.00 | 0.02 | 0.02 | 75 | 1015.4 |
| 20260508002338 | 55 | 232 | 0.9 | 4.3 | 0.00 | 0.02 | 0.02 | 75 | 1015.5 |
| 20260508001828 | 55 | 233 | 2.6 | 4.3 | 0.01 | 0.02 | 0.02 | 72 | 1015.5 |
| 20260508001334 | 55 | 13 | 1.7 | 1.7 | 0.01 | 0.02 | 0.02 | 71 | 1015.3 |
| 20260508000842 | 55 | 15 | 0.9 | 2.6 | 0.01 | 0.02 | 0.02 | 72 | 1015.1 |
| 20260508000350 | 55 | 14 | 0.9 | 2.6 | 0.01 | 0.02 | 0.02 | 70 | 1015.2 |
| 20260507235856 | 55 | 323 | 0.9 | 3.5 | 0.01 | 0.02 | 0.02 | 69 | 1015.0 |
| 20260507235325 | 55 | 355 | 1.7 | 3.5 | 0.01 | 0.02 | 0.02 | 71 | 1015.0 |
| 20260507234841 | 55 | 355 | 0.9 | 3.5 | 0.01 | 0.02 | 0.02 | 73 | 1015.0 |
| 20260507234328 | 54 | 339 | 0.9 | 5.2 | 0.01 | 0.02 | 0.02 | 75 | 1015.1 |
| 20260507233835 | 53 | 313 | 2.6 | 5.2 | 0.01 | 0.02 | 0.02 | 78 | 1015.2 |
| 20260507233334 | 53 | 328 | 2.6 | 7.0 | 0.01 | 0.02 | 0.02 | 76 | 1015.2 |
| 20260507232840 | 53 | 324 | 2.6 | 9.6 | 0.01 | 0.02 | 0.02 | 77 | 1014.9 |
| 20260507232335 | 53 | 325 | 4.3 | 9.6 | 0.01 | 0.02 | 0.02 | 74 | 1015.0 |
| 20260507231904 | 53 | 326 | 4.3 | 7.8 | 0.00 | 0.01 | 0.01 | 75 | 1014.8 |
| 20260507231330 | 53 | 345 | 4.3 | 11.3 | 0.00 | 0.01 | 0.01 | 78 | 1014.8 |
| 20260507230841 | 54 | 328 | 5.2 | 13.0 | 0.00 | 0.01 | 0.01 | 77 | 1014.8 |
| 20260507230330 | 55 | 35 | 6.1 | 18.2 | 0.00 | 0.01 | 0.01 | 72 | 1014.8 |
| 20260507225839 | 57 | 339 | 9.6 | 20.0 | 0.00 | 0.01 | 0.01 | 61 | 1014.9 |
| 20260507225344 | 59 | 15 | 6.1 | 20.0 | 0.00 | 0.01 | 0.01 | 57 | 1014.9 |
| 20260507224850 | 60 | 335 | 7.0 | 20.0 | 0.00 | 0.01 | 0.01 | 56 | 1014.9 |
| 20260507224340 | 62 | 325 | 4.3 | 10.4 | 0.00 | 0.01 | 0.01 | 52 | 1014.6 |
| 20260507223848 | 61 | 60 | 2.6 | 9.6 | 0.00 | 0.01 | 0.01 | 52 | 1014.5 |
| 20260507223336 | 62 | 323 | 4.3 | 8.7 | 0.00 | 0.01 | 0.01 | 53 | 1014.5 |
| 20260507222844 | 61 | 360 | 3.5 | 7.8 | 0.00 | 0.01 | 0.01 | 51 | 1014.5 |
| 20260507222339 | 61 | 335 | 3.5 | 5.2 | 0.00 | 0.01 | 0.01 | 50 | 1014.5 |
| 20260507221845 | 61 | 343 | 2.6 | 4.3 | 0.00 | 0.01 | 0.01 | 51 | 1014.4 |
| 20260507221334 | 61 | 63 | 1.7 | 7.8 | 0.00 | 0.01 | 0.01 | 50 | 1014.4 |
| 20260507220847 | 61 | 22 | 2.6 | 7.8 | 0.00 | 0.01 | 0.01 | 51 | 1014.4 |
| 20260507220335 | 61 | 78 | 1.7 | 3.5 | 0.00 | 0.01 | 0.01 | 57 | 1014.5 |
| 20260507215824 | 60 | 28 | 1.7 | 4.3 | 0.00 | 0.01 | 0.01 | 55 | 1014.6 |
| 20260507215337 | 60 | 328 | 0.9 | 7.8 | 0.00 | 0.01 | 0.01 | 55 | 1014.5 |
| 20260507214851 | 60 | 66 | 1.7 | 8.7 | 0.00 | 0.01 | 0.01 | 54 | 1014.6 |
| 20260507214340 | 60 | 321 | 5.2 | 8.7 | 0.00 | 0.01 | 0.01 | 52 | 1014.7 |
| 20260507213833 | 60 | 42 | 1.7 | 4.3 | 0.00 | 0.01 | 0.01 | 54 | 1014.7 |
| 20260507213342 | 60 | 355 | 2.6 | 5.2 | 0.00 | 0.01 | 0.01 | 53 | 1014.8 |
| 20260507212840 | 59 | 321 | 3.5 | 5.2 | 0.00 | 0.01 | 0.01 | 54 | 1014.9 |
| 20260507212334 | 59 | 319 | 3.5 | 5.2 | 0.00 | 0.01 | 0.01 | 54 | 1014.9 |
| 20260507211850 | 60 | 313 | 3.5 | 8.7 | 0.00 | 0.01 | 0.01 | 53 | 1015.0 |
| 20260507211340 | 60 | 315 | 4.3 | 11.3 | 0.00 | 0.01 | 0.01 | 53 | 1014.9 |
| 20260507210900 | 60 | 19 | 6.1 | 11.3 | 0.00 | 0.01 | 0.01 | 52 | 1014.9 |
| 20260507210330 | 60 | 9 | 2.6 | 7.8 | 0.00 | 0.01 | 0.01 | 52 | 1014.9 |
| 20260507205833 | 60 | 26 | 3.5 | 7.8 | 0.00 | 0.01 | 0.01 | 51 | 1014.9 |
| 20260507205346 | 61 | 318 | 0.0 | 5.2 | 0.00 | 0.01 | 0.01 | 51 | 1014.9 |
| 20260507204853 | 61 | 310 | 3.5 | 7.8 | 0.00 | 0.01 | 0.01 | 50 | 1014.9 |
| 20260507204340 | 61 | 328 | 5.2 | 7.8 | 0.00 | 0.01 | 0.01 | 49 | 1014.8 |
| 20260507203828 | 61 | 351 | 0.9 | 2.6 | 0.00 | 0.01 | 0.01 | 52 | 1014.7 |
| 20260507203345 | 61 | 298 | 0.9 | 4.3 | 0.00 | 0.01 | 0.01 | 51 | 1014.9 |
| 20260507202836 | 60 | 312 | 1.7 | 4.3 | 0.00 | 0.01 | 0.01 | 53 | 1015.0 |
| 20260507202346 | 60 | 40 | 1.7 | 7.0 | 0.00 | 0.01 | 0.01 | 55 | 1014.9 |
| 20260507201832 | 60 | 342 | 3.5 | 7.0 | 0.00 | 0.01 | 0.01 | 55 | 1014.9 |
| 20260507201333 | 60 | 321 | 2.6 | 7.8 | 0.00 | 0.01 | 0.01 | 54 | 1014.9 |
| 20260507200838 | 60 | 323 | 5.2 | 7.8 | 0.00 | 0.01 | 0.01 | 53 | 1015.0 |
| 20260507200327 | 61 | 355 | 1.7 | 7.0 | 0.00 | 0.01 | 0.01 | 55 | 1015.0 |
| 20260507195904 | 61 | 331 | 3.5 | 7.0 | 0.00 | 0.01 | 0.01 | 55 | 1015.0 |
| 20260507195337 | 61 | 346 | 0.9 | 5.2 | 0.00 | 0.01 | 0.01 | 54 | 1015.0 |
| 20260507194844 | 61 | 67 | 1.7 | 8.7 | 0.00 | 0.01 | 0.01 | 56 | 1014.9 |
| 20260507194327 | 60 | 67 | 2.6 | 8.7 | 0.00 | 0.01 | 0.01 | 59 | 1015.0 |
| 20260507193842 | 59 | 81 | 3.5 | 8.7 | 0.00 | 0.01 | 0.01 | 58 | 1015.0 |
| 20260507193350 | 59 | 36 | 1.7 | 4.3 | 0.00 | 0.01 | 0.01 | 59 | 1015.0 |
| 20260507192837 | 58 | 347 | 1.7 | 5.2 | 0.00 | 0.01 | 0.01 | 59 | 1015.2 |
| 20260507192401 | 57 | 327 | 2.6 | 5.2 | 0.00 | 0.01 | 0.01 | 62 | 1015.2 |
| 20260507191833 | 57 | 310 | 2.6 | 7.0 | 0.00 | 0.01 | 0.01 | 61 | 1015.1 |
| 20260507191350 | 57 | 325 | 2.6 | 7.0 | 0.00 | 0.01 | 0.01 | 63 | 1015.2 |
| 20260507190838 | 57 | 84 | 2.6 | 8.7 | 0.00 | 0.01 | 0.01 | 64 | 1015.3 |
| 20260507190328 | 57 | 309 | 5.2 | 8.7 | 0.00 | 0.01 | 0.01 | 64 | 1015.4 |
| 20260507185833 | 57 | 340 | 3.5 | 12.2 | 0.00 | 0.01 | 0.01 | 63 | 1015.3 |
| 20260507185343 | 57 | 318 | 5.2 | 12.2 | 0.00 | 0.01 | 0.01 | 64 | 1015.4 |
| 20260507184851 | 58 | 345 | 7.0 | 12.2 | 0.00 | 0.01 | 0.01 | 62 | 1015.5 |
| 20260507184342 | 58 | 340 | 3.5 | 13.0 | 0.00 | 0.01 | 0.01 | 63 | 1015.5 |
| 20260507183902 | 57 | 312 | 5.2 | 13.0 | 0.00 | 0.01 | 0.01 | 63 | 1015.6 |
| 20260507183329 | 57 | 313 | 4.3 | 10.4 | 0.00 | 0.01 | 0.01 | 62 | 1015.8 |
| 20260507182836 | 58 | 346 | 4.3 | 10.4 | 0.00 | 0.01 | 0.01 | 59 | 1015.7 |
| 20260507182350 | 59 | 325 | 6.1 | 12.2 | 0.00 | 0.01 | 0.01 | 52 | 1015.7 |
| 20260507181846 | 59 | 300 | 5.2 | 12.2 | 0.00 | 0.01 | 0.01 | 47 | 1015.6 |
| 20260507181358 | 59 | 273 | 5.2 | 11.3 | 0.00 | 0.01 | 0.01 | 48 | 1015.5 |
| 20260507180845 | 59 | 298 | 5.2 | 10.4 | 0.00 | 0.01 | 0.01 | 48 | 1015.5 |
| 20260507180339 | 59 | 269 | 2.6 | 7.8 | 0.00 | 0.01 | 0.01 | 53 | 1015.5 |
| 20260507175829 | 59 | 342 | 1.7 | 6.1 | 0.00 | 0.01 | 0.01 | 54 | 1015.5 |
| 20260507175328 | 59 | 232 | 3.5 | 6.1 | 0.00 | 0.01 | 0.01 | 53 | 1015.4 |
| 20260507174837 | 59 | 290 | 1.7 | 3.5 | 0.00 | 0.01 | 0.01 | 61 | 1015.3 |
| 20260507174340 | 59 | 319 | 1.7 | 3.5 | 0.00 | 0.01 | 0.01 | 56 | 1015.4 |
| 20260507173849 | 59 | 76 | 0.9 | 3.5 | 0.00 | 0.01 | 0.01 | 57 | 1015.3 |
| 20260507173337 | 59 | 312 | 1.7 | 3.5 | 0.00 | 0.01 | 0.01 | 57 | 1015.3 |
| 20260507172836 | 59 | 300 | 0.9 | 5.2 | 0.00 | 0.01 | 0.01 | 56 | 1015.3 |
| 20260507172342 | 59 | 339 | 2.6 | 5.2 | 0.00 | 0.01 | 0.01 | 58 | 1015.2 |
| 20260507171832 | 59 | 150 | 1.7 | 7.0 | 0.00 | 0.01 | 0.01 | 57 | 1015.1 |
| 20260507171324 | 59 | 317 | 3.5 | 7.8 | 0.00 | 0.01 | 0.01 | 59 | 1015.2 |
| 20260507170832 | 59 | 320 | 2.6 | 12.2 | 0.00 | 0.01 | 0.01 | 60 | 1015.2 |
| 20260507170341 | 59 | 317 | 7.8 | 12.2 | 0.00 | 0.01 | 0.01 | 61 | 1015.2 |
| 20260507165828 | 58 | 46 | 2.6 | 7.0 | 0.00 | 0.01 | 0.01 | 64 | 1015.2 |
| 20260507165335 | 58 | 49 | 4.3 | 7.0 | 0.00 | 0.01 | 0.01 | 63 | 1015.3 |
| 20260507164827 | 58 | 325 | 4.3 | 7.0 | 0.00 | 0.01 | 0.01 | 62 | 1015.2 |
| 20260507164335 | 58 | 340 | 1.7 | 7.0 | 0.00 | 0.01 | 0.01 | 67 | 1015.2 |
| 20260507163826 | 58 | 355 | 3.5 | 5.2 | 0.00 | 0.01 | 0.01 | 61 | 1015.2 |
| 20260507163334 | 59 | 44 | 1.7 | 8.7 | 0.00 | 0.01 | 0.01 | 58 | 1015.0 |
| 20260507162852 | 59 | 319 | 3.5 | 8.7 | 0.00 | 0.01 | 0.01 | 53 | 1015.1 |
| 20260507162334 | 59 | 270 | 0.9 | 7.8 | 0.00 | 0.01 | 0.01 | 55 | 1015.1 |
| 20260507161842 | 59 | 240 | 3.5 | 10.4 | 0.00 | 0.01 | 0.01 | 54 | 1015.2 |
| 20260507161349 | 59 | 251 | 5.2 | 13.0 | 0.00 | 0.01 | 0.01 | 48 | 1015.2 |
| 20260507160829 | 59 | 319 | 7.0 | 13.0 | 0.00 | 0.01 | 0.01 | 48 | 1015.1 |
| 20260507160336 | 59 | 225 | 3.5 | 8.7 | 0.00 | 0.01 | 0.01 | 50 | 1015.2 |
| 20260507155856 | 59 | 337 | 1.7 | 7.8 | 0.00 | 0.01 | 0.01 | 52 | 1015.1 |
| 20260507155323 | 58 | 292 | 4.3 | 9.6 | 0.00 | 0.01 | 0.01 | 54 | 1015.2 |
| 20260507154835 | 58 | 338 | 2.6 | 9.6 | 0.00 | 0.01 | 0.01 | 56 | 1015.1 |
| 20260507154323 | 56 | 234 | 2.6 | 10.4 | 0.00 | 0.01 | 0.01 | 60 | 1015.1 |
| 20260507153841 | 55 | 234 | 0.9 | 3.5 | 0.00 | 0.01 | 0.01 | 69 | 1015.2 |
| 20260507153329 | 54 | 55 | 0.0 | 1.7 | 0.00 | 0.01 | 0.01 | 68 | 1015.3 |
| 20260507152846 | 54 | 53 | 0.0 | 1.7 | 0.00 | 0.01 | 0.01 | 70 | 1015.2 |
| 20260507152340 | 53 | 55 | 0.0 | 2.6 | 0.00 | 0.01 | 0.01 | 70 | 1015.2 |
| 20260507151829 | 53 | 55 | 0.9 | 3.5 | 0.00 | 0.01 | 0.01 | 69 | 1015.3 |
| 20260507151335 | 53 | 49 | 1.7 | 7.0 | 0.00 | 0.01 | 0.01 | 69 | 1015.4 |
| 20260507150832 | 53 | 330 | 2.6 | 7.0 | 0.00 | 0.01 | 0.01 | 68 | 1015.3 |
| 20260507150341 | 53 | 326 | 1.7 | 5.2 | 0.00 | 0.01 | 0.01 | 70 | 1015.5 |
| 20260507145834 | 52 | 323 | 3.5 | 5.2 | 0.00 | 0.01 | 0.01 | 72 | 1015.5 |
| 20260507145324 | 53 | 332 | 3.5 | 7.0 | 0.00 | 0.01 | 0.01 | 71 | 1015.5 |
| 20260507144841 | 53 | 317 | 4.3 | 7.0 | 0.00 | 0.01 | 0.01 | 69 | 1015.4 |
| 20260507144330 | 53 | 327 | 3.5 | 5.2 | 0.00 | 0.01 | 0.01 | 71 | 1015.2 |
| 20260507143839 | 52 | 321 | 1.7 | 5.2 | 0.00 | 0.01 | 0.01 | 72 | 1014.9 |
| 20260507143327 | 51 | 331 | 3.5 | 5.2 | 0.00 | 0.01 | 0.01 | 74 | 1014.9 |
| 20260507142850 | 50 | 360 | 2.6 | 3.5 | 0.00 | 0.01 | 0.01 | 75 | 1014.7 |
| 20260507142340 | 50 | 297 | 0.9 | 3.5 | 0.00 | 0.01 | 0.01 | 74 | 1014.7 |
| 20260507141856 | 50 | 297 | 1.7 | 3.5 | 0.00 | 0.01 | 0.01 | 75 | 1014.6 |
| 20260507141344 | 49 | 298 | 0.9 | 4.3 | 0.00 | 0.01 | 0.01 | 77 | 1014.7 |
| 20260507140859 | 48 | 298 | 0.9 | 4.3 | 0.00 | 0.01 | 0.01 | 77 | 1014.6 |
| 20260507140337 | 48 | 323 | 2.6 | 3.5 | 0.00 | 0.01 | 0.01 | 79 | 1014.7 |
| 20260507135833 | 47 | 360 | 0.0 | 2.6 | 0.00 | 0.01 | 0.01 | 79 | 1014.5 |
| 20260507135343 | 47 | 11 | 0.9 | 1.7 | 0.00 | 0.01 | 0.01 | 78 | 1014.5 |
| 20260507134833 | 47 | 201 | 0.0 | 4.3 | 0.00 | 0.01 | 0.01 | 79 | 1014.6 |
| 20260507134335 | 47 | 203 | 0.9 | 7.0 | 0.00 | 0.01 | 0.01 | 79 | 1014.5 |
| 20260507133837 | 47 | 212 | 3.5 | 7.0 | 0.00 | 0.01 | 0.01 | 80 | 1014.3 |
| 20260507133353 | 46 | 203 | 3.5 | 5.2 | 0.00 | 0.01 | 0.01 | 81 | 1014.4 |
| 20260507132838 | 46 | 206 | 2.6 | 4.3 | 0.00 | 0.01 | 0.01 | 82 | 1014.4 |
| 20260507132346 | 45 | 206 | 2.6 | 3.5 | 0.00 | 0.01 | 0.01 | 83 | 1014.5 |
| 20260507131829 | 45 | 193 | 0.9 | 1.7 | 0.00 | 0.01 | 0.01 | 83 | 1014.5 |
| 20260507131349 | 45 | 194 | 0.0 | 1.7 | 0.00 | 0.01 | 0.01 | 83 | 1014.6 |
| 20260507130836 | 45 | 194 | 0.9 | 2.6 | 0.00 | 0.01 | 0.01 | 83 | 1014.6 |
| 20260507130324 | 45 | 192 | 0.0 | 5.2 | 0.00 | 0.01 | 0.01 | 82 | 1014.5 |
| 20260507125837 | 45 | 194 | 2.6 | 5.2 | 0.00 | 0.01 | 0.01 | 82 | 1014.4 |
| 20260507125411 | 45 | 177 | 1.7 | 6.1 | 0.00 | 0.01 | 0.01 | 82 | 1014.4 |
| 20260507124837 | 45 | 169 | 2.6 | 6.1 | 0.00 | 0.01 | 0.01 | 81 | 1014.3 |
| 20260507124344 | 45 | 175 | 2.6 | 6.1 | 0.00 | 0.01 | 0.01 | 80 | 1014.2 |
| 20260507123847 | 46 | 171 | 2.6 | 6.1 | 0.00 | 0.01 | 0.01 | 79 | 1014.1 |
| 20260507123331 | 47 | 172 | 3.5 | 6.1 | 0.00 | 0.01 | 0.01 | 78 | 1014.2 |
| 20260507122908 | 47 | 170 | 1.7 | 4.3 | 0.00 | 0.01 | 0.01 | 78 | 1014.2 |
| 20260507122335 | 47 | 205 | 0.9 | 7.0 | 0.00 | 0.01 | 0.01 | 77 | 1014.2 |
| 20260507121851 | 47 | 218 | 3.5 | 7.0 | 0.00 | 0.01 | 0.01 | 77 | 1014.2 |
| 20260507121340 | 48 | 213 | 4.3 | 7.8 | 0.00 | 0.01 | 0.01 | 77 | 1014.3 |
| 20260507120827 | 48 | 218 | 4.3 | 7.8 | 0.00 | 0.01 | 0.01 | 77 | 1014.2 |
| 20260507120330 | 48 | 209 | 3.5 | 6.1 | 0.00 | 0.01 | 0.01 | 77 | 1014.1 |
| 20260507115843 | 48 | 204 | 3.5 | 6.1 | 0.00 | 0.01 | 0.01 | 76 | 1014.2 |
| 20260507115337 | 48 | 192 | 3.5 | 4.3 | 0.00 | 0.01 | 0.01 | 76 | 1014.2 |
| 20260507114846 | 48 | 224 | 3.5 | 4.3 | 0.00 | 0.01 | 0.01 | 77 | 1014.2 |
| 20260507114341 | 48 | 232 | 2.6 | 4.3 | 0.00 | 0.01 | 0.01 | 77 | 1014.2 |
| 20260507113833 | 48 | 209 | 1.7 | 5.2 | 0.00 | 0.01 | 0.01 | 77 | 1014.2 |
| 20260507113356 | 48 | 190 | 1.7 | 5.2 | 0.00 | 0.01 | 0.01 | 77 | 1014.2 |
| 20260507112824 | 48 | 198 | 2.6 | 4.3 | 0.00 | 0.01 | 0.01 | 78 | 1014.4 |
| 20260507112354 | 48 | 193 | 0.9 | 3.5 | 0.00 | 0.01 | 0.01 | 78 | 1014.3 |
| 20260507111835 | 48 | 193 | 1.7 | 2.6 | 0.00 | 0.01 | 0.01 | 78 | 1014.4 |
| 20260507111353 | 48 | 194 | 0.9 | 2.6 | 0.00 | 0.01 | 0.01 | 78 | 1014.4 |
| 20260507110842 | 48 | 208 | 0.9 | 3.5 | 0.00 | 0.01 | 0.01 | 78 | 1014.4 |
| 20260507110328 | 48 | 209 | 1.7 | 6.1 | 0.00 | 0.01 | 0.01 | 78 | 1014.4 |
| 20260507105841 | 48 | 222 | 3.5 | 6.1 | 0.00 | 0.01 | 0.01 | 78 | 1014.5 |
| 20260507105333 | 48 | 240 | 1.7 | 2.6 | 0.01 | 0.01 | 0.01 | 79 | 1014.5 |
| 20260507104828 | 48 | 319 | 1.7 | 7.0 | 0.01 | 0.01 | 0.01 | 81 | 1014.6 |
| 20260507104332 | 49 | 97 | 0.0 | 7.0 | 0.01 | 0.01 | 0.01 | 80 | 1014.7 |
| 20260507103849 | 49 | 163 | 3.5 | 7.0 | 0.01 | 0.01 | 0.01 | 80 | 1014.9 |
| 20260507103337 | 49 | 184 | 2.6 | 6.1 | 0.01 | 0.01 | 0.01 | 80 | 1014.9 |
| 20260507102842 | 49 | 167 | 3.5 | 5.2 | 0.01 | 0.01 | 0.01 | 79 | 1015.0 |
| 20260507102327 | 50 | 74 | 1.7 | 2.6 | 0.01 | 0.01 | 0.01 | 77 | 1014.9 |
| 20260507101834 | 50 | 333 | 0.9 | 10.4 | 0.01 | 0.01 | 0.01 | 76 | 1014.7 |
| 20260507101323 | 50 | 329 | 2.6 | 13.0 | 0.01 | 0.01 | 0.01 | 75 | 1014.7 |
| 20260507100840 | 50 | 335 | 6.1 | 15.6 | 0.01 | 0.01 | 0.01 | 75 | 1014.8 |
| 20260507100342 | 50 | 314 | 9.6 | 19.1 | 0.01 | 0.01 | 0.01 | 74 | 1015.1 |
| 20260507095846 | 51 | 346 | 9.6 | 14.8 | 0.00 | 0.00 | 0.00 | 73 | 1015.0 |
| 20260507095338 | 53 | 294 | 8.7 | 14.8 | 0.00 | 0.00 | 0.00 | 67 | 1015.0 |
| 20260507094839 | 54 | 296 | 6.1 | 18.2 | 0.00 | 0.00 | 0.00 | 63 | 1015.0 |
| 20260507094355 | 55 | 333 | 11.3 | 18.2 | 0.00 | 0.00 | 0.00 | 60 | 1014.9 |
| 20260507093824 | 57 | 315 | 8.7 | 22.6 | 0.00 | 0.00 | 0.00 | 57 | 1014.6 |
| 20260507093400 | 57 | 301 | 8.7 | 22.6 | 0.00 | 0.00 | 0.00 | 56 | 1014.2 |
| 20260507092904 | 57 | 300 | 8.7 | 16.5 | 0.00 | 0.00 | 0.00 | 56 | 1014.2 |
| 20260507092358 | 56 | 244 | 7.0 | 16.5 | 0.00 | 0.00 | 0.00 | 55 | 1013.8 |
| 20260507091843 | 53 | 319 | 7.8 | 15.6 | 0.00 | 0.00 | 0.00 | 58 | 1013.6 |
| 20260507091332 | 52 | 323 | 2.6 | 7.0 | 0.00 | 0.00 | 0.00 | 59 | 1013.6 |
| 20260507090848 | 52 | 262 | 0.9 | 2.6 | 0.00 | 0.00 | 0.00 | 59 | 1013.4 |
| 20260507090342 | 52 | 137 | 0.9 | 5.2 | 0.00 | 0.00 | 0.00 | 58 | 1013.5 |
| 20260507085853 | 52 | 105 | 1.7 | 5.2 | 0.00 | 0.00 | 0.00 | 59 | 1013.4 |
| 20260507085345 | 52 | 177 | 0.0 | 1.7 | 0.00 | 0.00 | 0.00 | 58 | 1013.2 |
| 20260507084838 | 53 | 176 | 0.9 | 1.7 | 0.00 | 0.00 | 0.00 | 57 | 1013.2 |
| 20260507084325 | 53 | 176 | 0.9 | 6.1 | 0.00 | 0.00 | 0.00 | 56 | 1013.3 |
| 20260507083843 | 53 | 271 | 2.6 | 6.1 | 0.00 | 0.00 | 0.00 | 57 | 1013.3 |
| 20260507083328 | 53 | 194 | 0.9 | 5.2 | 0.00 | 0.00 | 0.00 | 56 | 1013.1 |
| 20260507082842 | 53 | 186 | 1.7 | 7.0 | 0.00 | 0.00 | 0.00 | 56 | 1013.1 |
| 20260507082345 | 53 | 205 | 3.5 | 7.0 | 0.00 | 0.00 | 0.00 | 56 | 1013.2 |
| 20260507081835 | 53 | 190 | 4.3 | 6.1 | 0.00 | 0.00 | 0.00 | 57 | 1013.2 |
| 20260507081344 | 53 | 161 | 2.6 | 7.8 | 0.00 | 0.00 | 0.00 | 57 | 1013.2 |
| 20260507080832 | 53 | 144 | 3.5 | 6.1 | 0.00 | 0.00 | 0.00 | 57 | 1013.2 |
| 20260507080341 | 53 | 167 | 1.7 | 4.3 | 0.00 | 0.00 | 0.00 | 57 | 1013.1 |
| 20260507075859 | 53 | 188 | 1.7 | 6.1 | 0.00 | 0.00 | 0.00 | 58 | 1013.0 |
| 20260507075346 | 53 | 201 | 2.6 | 6.1 | 0.00 | 0.00 | 0.00 | 58 | 1012.9 |
| 20260507074909 | 53 | 175 | 3.5 | 5.2 | 0.00 | 0.00 | 0.00 | 57 | 1013.0 |
| 20260507074330 | 53 | 215 | 2.6 | 5.2 | 0.00 | 0.00 | 0.00 | 57 | 1012.9 |
| 20260507073904 | 54 | 178 | 2.6 | 4.3 | 0.00 | 0.00 | 0.00 | 58 | 1012.8 |
| 20260507073359 | 54 | 168 | 3.5 | 4.3 | 0.00 | 0.00 | 0.00 | 57 | 1013.0 |
| 20260507072827 | 55 | 241 | 1.7 | 4.3 | 0.00 | 0.00 | 0.00 | 57 | 1013.0 |
| 20260507072335 | 55 | 213 | 1.7 | 6.1 | 0.00 | 0.00 | 0.00 | 56 | 1013.0 |
| 20260507071851 | 54 | 244 | 2.6 | 6.1 | 0.00 | 0.00 | 0.00 | 56 | 1013.0 |
| 20260507071335 | 54 | 246 | 2.6 | 4.3 | 0.00 | 0.00 | 0.00 | 57 | 1013.1 |
| 20260507070849 | 55 | 199 | 2.6 | 4.3 | 0.00 | 0.00 | 0.00 | 56 | 1013.0 |
| 20260507070335 | 55 | 216 | 1.7 | 4.3 | 0.00 | 0.00 | 0.00 | 56 | 1013.0 |
| 20260507065902 | 55 | 225 | 2.6 | 3.5 | 0.00 | 0.00 | 0.00 | 58 | 1013.1 |
| 20260507065337 | 55 | 157 | 0.9 | 1.7 | 0.00 | 0.00 | 0.00 | 57 | 1012.9 |
| 20260507064823 | 55 | 156 | 0.0 | 1.7 | 0.00 | 0.00 | 0.00 | 57 | 1013.0 |
| 20260507064336 | 55 | 157 | 0.9 | 1.7 | 0.00 | 0.00 | 0.00 | 56 | 1013.1 |
| 20260507063846 | 55 | 156 | 0.9 | 1.7 | 0.00 | 0.00 | 0.00 | 56 | 1013.1 |
| 20260507063348 | 55 | 157 | 0.0 | 0.9 | 0.00 | 0.00 | 0.00 | 56 | 1013.2 |
| 20260507062834 | 55 | 157 | 0.0 | 0.0 | 0.00 | 0.00 | 0.00 | 55 | 1013.4 |
| 20260507062323 | 55 | 157 | 0.0 | 0.9 | 0.00 | 0.00 | 0.00 | 55 | 1013.3 |
| 20260507061843 | 56 | 157 | 0.9 | 0.9 | 0.00 | 0.00 | 0.00 | 55 | 1013.3 |
| 20260507061332 | 56 | 157 | 0.0 | 1.7 | 0.00 | 0.00 | 0.00 | 54 | 1013.3 |
| 20260507060839 | 56 | 157 | 0.9 | 1.7 | 0.00 | 0.00 | 0.00 | 54 | 1013.2 |
| 20260507060337 | 56 | 159 | 0.9 | 2.6 | 0.00 | 0.00 | 0.00 | 53 | 1013.3 |
| 20260507055840 | 56 | 157 | 0.9 | 2.6 | 0.00 | 0.00 | 0.00 | 54 | 1013.4 |
| 20260507055329 | 56 | 156 | 0.0 | 1.7 | 0.00 | 0.00 | 0.00 | 53 | 1013.4 |
| 20260507054841 | 56 | 157 | 0.9 | 1.7 | 0.00 | 0.00 | 0.00 | 53 | 1013.3 |
| 20260507054328 | 57 | 157 | 0.9 | 2.6 | 0.00 | 0.00 | 0.00 | 53 | 1013.2 |
| 20260507053838 | 57 | 157 | 0.0 | 2.6 | 0.00 | 0.00 | 0.00 | 52 | 1013.3 |
| 20260507053326 | 57 | 156 | 0.0 | 1.7 | 0.00 | 0.00 | 0.00 | 52 | 1013.4 |
| 20260507052832 | 57 | 157 | 0.0 | 1.7 | 0.00 | 0.00 | 0.00 | 52 | 1013.5 |
| 20260507052345 | 57 | 157 | 0.9 | 4.3 | 0.00 | 0.00 | 0.00 | 54 | 1013.4 |
| 20260507051829 | 58 | 165 | 3.5 | 4.3 | 0.00 | 0.00 | 0.00 | 52 | 1013.4 |
| 20260507051347 | 58 | 282 | 1.7 | 2.6 | 0.00 | 0.00 | 0.00 | 51 | 1013.2 |
| 20260507050836 | 58 | 298 | 0.0 | 1.7 | 0.00 | 0.00 | 0.00 | 50 | 1013.3 |
| 20260507050354 | 59 | 302 | 0.0 | 1.7 | 0.00 | 0.00 | 0.00 | 50 | 1013.4 |
| 20260507045848 | 59 | 302 | 0.9 | 7.0 | 0.00 | 0.00 | 0.00 | 48 | 1013.3 |
| 20260507045337 | 59 | 313 | 1.7 | 18.2 | 0.00 | 0.00 | 0.00 | 48 | 1013.3 |
| 20260507044824 | 61 | 340 | 9.6 | 20.9 | 0.00 | 0.00 | 0.00 | 48 | 1013.2 |
| 20260507044338 | 61 | 289 | 8.7 | 20.9 | 0.00 | 0.00 | 0.00 | 43 | 1013.8 |